Flag for Germany Weather past 2 weeks in Wipperfürth, North Rhine-Westphalia, Germany

Now
55 °F

Sunny.


Feels Like: 54 °F
Forecast: 38 / 58 °F
Wind: 6 mph from Southeast

Location: Koeln / Bonn

Current Time: Apr 19, 2015 at 1:26:20 PM

Latest Report: Apr 19, 2015 at 12:50 PM


Visibility: 10 mi

Pressure: 30.15 "Hg

Humidity: 33%

Dew point: 27 °F

Location of WipperfürthLocation

Historic Weather in Wipperfürth — Graph

°F

Wipperfürth temperature yesterday

Maximum temperature yesterday: 59 °F (at 4:20 PM)
Minimum temperature yesterday: 32 °F (at 7:20 AM)
Average temperature yesterday: 47 °F

Past Weeks' High & Low Weather Summary

 TemperatureHumidityPressure
High77 °F (Apr 15, 4:20 PM)100% (Apr 7, 4:20 AM)30.66 "Hg (Apr 7, 4:20 AM)
Low27 °F (Apr 7, 6:50 AM)16% (Apr 10, 6:20 PM)29.89 "Hg (Apr 16, 5:50 PM)
Average50 °F60%30.26 "Hg
* Reported Apr 4 12:20 PM — Apr 19 12:20 PM, Wipperfürth, Weather by CustomWeather, © 2015

Note: Actual official high and low records may vary slightly from our data, if they occured in-between our weather recording intervals... More about our weather records

Advertising

Wipperfürth weather history for previous 24 hours

 ConditionsComfort  
Time TempWeatherWind HumidityBarometerVisibility
12:20 PM
Sun, Apr 19
55 °FPassing clouds.5 mph38%30.15 "HgN/A
11:50 AM54 °FSunny.5 mph44%30.15 "Hg10 mi
11:20 AM54 °FSunny.5 mph44%30.15 "Hg10 mi
10:50 AM52 °FSunny.5 mph47%30.18 "Hg10 mi
10:20 AM48 °FSunny.3 mph54%30.18 "Hg10 mi
9:50 AM45 °FSunny.2 mph66%30.18 "Hg10 mi
9:20 AM43 °FSunny.2 mph71%30.18 "Hg10 mi
8:50 AM39 °FSunny.2 mph81%30.18 "Hg10 mi
8:20 AM36 °FSunny.2 mph87%30.18 "Hg10 mi
7:50 AM32 °FSunny.2 mph93%30.18 "Hg10 mi
7:20 AM32 °FClear.1 mph87%30.18 "Hg10 mi
6:50 AM30 °FClear.1 mph93%30.18 "Hg10 mi
6:20 AM32 °FClear.2 mph80%30.18 "Hg10 mi
5:50 AM37 °FClear.3 mph75%30.18 "Hg10 mi
5:20 AM32 °FClear.6 mph87%30.18 "Hg10 mi
4:50 AM34 °FClear.5 mph81%30.18 "Hg10 mi
4:20 AM32 °FClear.5 mph80%30.21 "Hg10 mi
3:50 AM37 °FClear.8 mph75%30.21 "Hg10 mi
3:20 AM36 °FClear.1 mph81%30.21 "Hg10 mi
2:50 AM36 °FClear.3 mph81%30.21 "Hg10 mi
2:20 AM37 °FClear.3 mph75%30.24 "Hg10 mi
1:20 AM37 °FClear.5 mph70%30.24 "Hg10 mi
12:50 AM39 °FClear.6 mph70%30.24 "Hg10 mi
12:20 AM41 °FClear.3 mph61%30.27 "Hg10 mi
11:50 PM
Sat, Apr 18
41 °FClear.3 mph66%30.24 "Hg10 mi
11:20 PM43 °FClear.5 mph57%30.27 "Hg10 mi
10:50 PM46 °FClear.5 mph50%30.27 "Hg10 mi
10:20 PM46 °FClear.5 mph50%30.27 "Hg10 mi
9:50 PM48 °FClear.7 mph43%30.24 "Hg10 mi
9:20 PM50 °FSunny.7 mph40%30.24 "Hg10 mi
8:50 PM52 °FSunny.6 mph38%30.24 "Hg10 mi
8:20 PM54 °FSunny.9 mph35%30.24 "Hg10 mi
7:50 PM55 °FSunny.10 mph33%30.24 "Hg10 mi
7:20 PM55 °FSunny.12 mph33%30.24 "Hg10 mi
6:50 PM57 °FSunny.10 mph31%30.24 "Hg10 mi
6:20 PM57 °FSunny.9 mph31%30.24 "Hg10 mi
5:50 PM57 °FPassing clouds.5 mph31%30.24 "HgN/A
5:20 PM57 °FSunny.3 mph31%30.24 "Hg10 mi
4:50 PM59 °FPassing clouds.7 mph29%30.24 "HgN/A
4:20 PM59 °FSunny.1 mph29%30.27 "Hg10 mi
3:50 PM57 °FPassing clouds.5 mph29%30.27 "HgN/A
3:20 PM57 °FSunny.8 mph31%30.27 "Hg10 mi
2:50 PM57 °FPassing clouds.7 mph31%30.30 "HgN/A
2:20 PM55 °FPassing clouds.5 mph31%30.30 "HgN/A
1:50 PM55 °FPassing clouds.6 mph33%30.30 "HgN/A
1:20 PM55 °FSunny.8 mph33%30.30 "Hg10 mi
Weather by CustomWeather, © 2015

See weather overviewHow to use our weather pages